CZ-6A DEB, 54949

Orbit data source: Space-Track

CZ-6A DEB, 54949 is space debris in SSO originally from a launch on Fri, 11 Nov 2022 UTC launched from the Taiyaun Space Center, China (TSC). Debris objects in space refer to the collection of defunct objects orbiting the Earth. Examples of debris include non-operational satellites, rocket bodies, and fragments generated from explosions, collisions, or faulty payload assembly.

Loading next visibility...
Identifier
54949, 2022-151SN
Orbit
SSO
Country
Flag of CNCN / PRC
Related business
Manufacturer
SAST
Mission
Spacecraft
Bus & Motor
Unknown
Mass
Unknown
Launch date (UTC)
2022-11-11 (3 years ago)
Launch vehicle
Unknown
Launch site
Taiyaun Space Center, China (TSC)
Object type
Payload
Rocket body
Debris
Shape & HBR
Unknown shape, 0.1 m
Radar Cross Section
Small (<0.1 m²)

Expand to show TLE details & history
Last TLE update: 16 hours ago

TLE from 16 hours ago
0 CZ-6A DEB
1 54949U 22151SN  25355.04628934  .00003011  00000-0  76044-3 0  9997
2 54949  98.6249  30.2769 0094575 162.4818 197.9674 14.49122991163261
Epoch: 2025-12-21T01:06Z
TLE epoch observation values (Epoch: 2025-12-21T01:06:39.398Z)
Latitude
-0.0001°
Longitude
-76.25161°
Altitude
795.478 km
Speed
7.422 km/s
True Right ascension
02h 01m 06s
True Declination
0° 00' 00"
Sunlit
Object was in full shadow at epoch
Visualization orbit readout
Latitude
Unknown
Longitude
Unknown
Altitude
Unknown
Speed
Unknown
Apparent Right ascension
Unknown
Apparent Declination
Unknown
Sunlit
N/A
Visualization observer readout
Local Sidereal Time
15:45:53
Azimuth
Unknown
Elevation
Unknown
Doppler factor
Unknown
Orbital elements
Apogee altitude
792.814 km
Perigee altitude
658.446 km
Semi-major axis
7,103.767 km
Eccentricity
0.00946
Inclination
98.6249°
RAAN
30.2769°
Arg. of periapsis
162.4818°
True anomaly
197.63681°
Mean anomaly
197.9674°
Eccentric anomaly
197.80174°
Mean motion
3.62502 °/min
Orbital period
99.31 mins
BSTAR
0.00076044
Loading maneuver chart data...
Computing Atmospheric mass density...
Loading historical data...
Loading historical data...
Loading historical data...
Loading historical data...
Loading historical data...
Loading historical data...
Loading historical data...

Documentation

Showing up to 5 results
|